When you browse on this site, cookies collect data to enhance your experience and personalize the content and advertising you see.
Visit our Privacy Policy to learn more. By continuing to use the site, you agree to this use of cookies and data.
  • en France
  • Liste des pays
  • À 7 jours
  • Température de l'eau
  • Carte satellitaire
  • Carte météo
  • Widgets météo
  • user-avatar
    Se connecter

    Météo par heure à Krivcovo-Plota

    Ce jour, 11 Décembre, Mardi

    Heure Température Précipitation Vent Pression Humidité
    00:00 -2°C° 0.7 mm 4 m/s 739 mmHg 94%
    01:00 -2°C° 0.3 mm 4 m/s 739 mmHg 95%
    02:00 0°C° 0.3 mm 3 m/s 739 mmHg 95%
    03:00 -1°C° 0 mm 2 m/s 738 mmHg 96%
    04:00 -1°C° 0.2 mm 2 m/s 739 mmHg 96%
    05:00 -1°C° 0.2 mm 2 m/s 739 mmHg 97%
    06:00 -1°C° 0.2 mm 3 m/s 739 mmHg 97%
    07:00 -1°C° 0 mm 2 m/s 739 mmHg 97%
    08:00 -1°C° 0 mm 2 m/s 740 mmHg 97%
    09:00 -1°C° 0 mm 2 m/s 740 mmHg 97%
    10:00 -1°C° 0 mm 2 m/s 740 mmHg 98%
    11:00 -1°C° 0 mm 2 m/s 741 mmHg 98%
    12:00 +2°C° 0 mm 1 m/s 741 mmHg 99%
    13:00 +2°C° 0 mm 1 m/s 741 mmHg 99%
    14:00 +1°C° 0 mm 1 m/s 741 mmHg 99%
    15:00 +1°C° 0 mm 1 m/s 742 mmHg 99%
    16:00 +2°C° 0 mm 1 m/s 742 mmHg 98%
    17:00 +2°C° 0 mm 1 m/s 742 mmHg 98%
    18:00 +2°C° 0 mm 1 m/s 743 mmHg 97%
    19:00 +1°C° 0 mm 2 m/s 743 mmHg 97%
    20:00 -1°C° 0 mm 2 m/s 743 mmHg 97%
    21:00 -1°C° 0 mm 2 m/s 743 mmHg 97%
    22:00 -1°C° 0 mm 3 m/s 743 mmHg 97%
    23:00 -1°C° 0 mm 3 m/s 743 mmHg 97%

    Demain, 12 Décembre, Mercredi

    Heure Température Précipitation Vent Pression Humidité
    00:00 0°C° 0 mm 3 m/s 743 mmHg 97%
    01:00 -2°C° 0 mm 4 m/s 743 mmHg 97%
    02:00 -2°C° 0 mm 4 m/s 742 mmHg 97%
    03:00 -2°C° 0 mm 5 m/s 742 mmHg 96%
    04:00 -2°C° 0.2 mm 5 m/s 742 mmHg 96%
    05:00 -2°C° 0.2 mm 5 m/s 742 mmHg 95%
    06:00 -3°C° 0.2 mm 6 m/s 742 mmHg 95%
    07:00 -3°C° 0.5 mm 6 m/s 741 mmHg 95%
    08:00 -3°C° 0.5 mm 6 m/s 741 mmHg 95%
    09:00 -3°C° 0.5 mm 6 m/s 741 mmHg 94%
    10:00 -3°C° 0.5 mm 6 m/s 741 mmHg 95%
    11:00 -3°C° 0.5 mm 6 m/s 741 mmHg 95%
    12:00 -3°C° 0.5 mm 6 m/s 741 mmHg 95%
    13:00 -3°C° 0.3 mm 6 m/s 741 mmHg 95%
    14:00 -3°C° 0.3 mm 6 m/s 740 mmHg 95%
    15:00 -3°C° 0.3 mm 6 m/s 740 mmHg 95%
    16:00 -3°C° 0.1 mm 6 m/s 740 mmHg 95%
    17:00 -2°C° 0.1 mm 6 m/s 740 mmHg 95%
    18:00 -2°C° 0.1 mm 6 m/s 740 mmHg 95%
    19:00 -1°C° 0.1 mm 5 m/s 740 mmHg 95%
    20:00 -1°C° 0.1 mm 5 m/s 740 mmHg 95%
    21:00 -1°C° 0.1 mm 5 m/s 740 mmHg 96%
    22:00 -1°C° 0.1 mm 5 m/s 741 mmHg 96%
    23:00 -1°C° 0.1 mm 5 m/s 741 mmHg 96%

    Après-demain, 13 Décembre, Jeudi

    Heure Température Précipitation Vent Pression Humidité
    00:00 -1°C° 0.1 mm 5 m/s 741 mmHg 96%
    01:00 -1°C° 0.3 mm 5 m/s 741 mmHg 96%
    02:00 -1°C° 0.3 mm 5 m/s 741 mmHg 96%
    03:00 -1°C° 0.3 mm 5 m/s 741 mmHg 96%
    04:00 -1°C° 0.2 mm 4 m/s 741 mmHg 96%
    05:00 -1°C° 0.2 mm 4 m/s 742 mmHg 96%
    06:00 -1°C° 0.2 mm 4 m/s 742 mmHg 96%
    07:00 -1°C° 0.1 mm 4 m/s 742 mmHg 96%
    08:00 -1°C° 0.1 mm 4 m/s 743 mmHg 96%
    09:00 -2°C° 0.1 mm 4 m/s 743 mmHg 96%
    10:00 -2°C° 0 mm 4 m/s 743 mmHg 96%
    11:00 -2°C° 0 mm 4 m/s 744 mmHg 97%
    12:00 -2°C° 0 mm 4 m/s 744 mmHg 97%
    13:00 -1°C° 0 mm 3 m/s 745 mmHg 97%
    14:00 -1°C° 0 mm 3 m/s 745 mmHg 96%
    15:00 -1°C° 0 mm 3 m/s 746 mmHg 95%
    16:00 -1°C° 0 mm 3 m/s 746 mmHg 95%
    17:00 -1°C° 0 mm 3 m/s 747 mmHg 94%
    18:00 -1°C° 0 mm 3 m/s 747 mmHg 94%
    19:00 -2°C° 0 mm 2 m/s 748 mmHg 94%
    20:00 -2°C° 0 mm 2 m/s 748 mmHg 94%
    21:00 -2°C° 0 mm 2 m/s 749 mmHg 94%
    22:00 -2°C° 0 mm 2 m/s 749 mmHg 94%
    23:00 -3°C° 0 mm 2 m/s 749 mmHg 95%

    14 Décembre, Vendredi

    Heure Température Précipitation Vent Pression Humidité
    00:00 -3°C° 0 mm 2 m/s 750 mmHg 95%
    01:00 -3°C° 0 mm 2 m/s 750 mmHg 94%
    02:00 -4°C° 0 mm 2 m/s 750 mmHg 94%
    03:00 -4°C° 0 mm 2 m/s 750 mmHg 93%
    04:00 -4°C° 0 mm 2 m/s 750 mmHg 93%
    05:00 -2°C° 0 mm 1 m/s 751 mmHg 93%
    06:00 -3°C° 0 mm 1 m/s 751 mmHg 93%
    07:00 -3°C° 0 mm 1 m/s 751 mmHg 92%
    08:00 -3°C° 0 mm 1 m/s 751 mmHg 92%
    09:00 -3°C° 0 mm 1 m/s 751 mmHg 92%
    10:00 -3°C° 0 mm 1 m/s 751 mmHg 92%
    11:00 -2°C° 0 mm 1 m/s 752 mmHg 92%
    12:00 -2°C° 0 mm 1 m/s 752 mmHg 92%
    13:00 -2°C° 0 mm 1 m/s 752 mmHg 92%
    14:00 -2°C° 0 mm 1 m/s 752 mmHg 92%
    15:00 -2°C° 0 mm 1 m/s 752 mmHg 92%
    16:00 -2°C° 0 mm 1 m/s 752 mmHg 93%
    17:00 -4°C° 0 mm 2 m/s 753 mmHg 94%
    18:00 -5°C° 0 mm 2 m/s 753 mmHg 94%
    19:00 -4°C° 0.1 mm 2 m/s 753 mmHg 95%
    20:00 -4°C° 0.1 mm 2 m/s 753 mmHg 95%
    21:00 -4°C° 0.1 mm 2 m/s 754 mmHg 96%
    22:00 -4°C° 0.1 mm 2 m/s 754 mmHg 96%
    23:00 -4°C° 0.1 mm 2 m/s 754 mmHg 96%

    15 Décembre, Samedi

    Heure Température Précipitation Vent Pression Humidité
    00:00 -4°C° 0.1 mm 2 m/s 754 mmHg 96%
    01:00 -4°C° 0.1 mm 2 m/s 754 mmHg 96%
    02:00 -4°C° 0.1 mm 2 m/s 755 mmHg 96%
    03:00 -4°C° 0.1 mm 2 m/s 755 mmHg 96%
    04:00 -4°C° 0.1 mm 2 m/s 755 mmHg 96%
    05:00 -6°C° 0.1 mm 3 m/s 755 mmHg 96%
    06:00 -6°C° 0.1 mm 3 m/s 755 mmHg 96%
    07:00 -6°C° 0 mm 3 m/s 756 mmHg 96%
    08:00 -6°C° 0 mm 3 m/s 756 mmHg 95%
    09:00 -6°C° 0 mm 3 m/s 756 mmHg 95%
    10:00 -6°C° 0 mm 3 m/s 757 mmHg 94%
    11:00 -6°C° 0 mm 3 m/s 757 mmHg 94%
    12:00 -6°C° 0 mm 3 m/s 758 mmHg 93%
    13:00 -6°C° 0 mm 3 m/s 758 mmHg 93%
    14:00 -5°C° 0 mm 2 m/s 758 mmHg 92%
    15:00 -5°C° 0 mm 2 m/s 759 mmHg 92%
    16:00 -6°C° 0 mm 2 m/s 759 mmHg 93%
    17:00 -8°C° 0 mm 3 m/s 759 mmHg 94%
    18:00 -9°C° 0 mm 3 m/s 760 mmHg 94%
    19:00 -10°C° 0 mm 3 m/s 760 mmHg 94%
    20:00 -12°C° 0 mm 3 m/s 760 mmHg 94%
    21:00 -13°C° 0 mm 3 m/s 761 mmHg 95%
    22:00 -13°C° 0 mm 2 m/s 761 mmHg 94%
    23:00 -14°C° 0 mm 2 m/s 761 mmHg 94%

    16 Décembre, Dimanche

    Heure Température Précipitation Vent Pression Humidité
    00:00 -14°C° 0 mm 2 m/s 761 mmHg 93%
    01:00 -14°C° 0 mm 2 m/s 762 mmHg 93%
    02:00 -15°C° 0 mm 2 m/s 762 mmHg 93%
    03:00 -15°C° 0 mm 2 m/s 762 mmHg 92%
    04:00 -15°C° 0 mm 2 m/s 762 mmHg 92%
    05:00 -15°C° 0 mm 2 m/s 762 mmHg 92%
    06:00 -15°C° 0 mm 2 m/s 762 mmHg 92%
    07:00 -15°C° 0 mm 2 m/s 763 mmHg 92%
    08:00 -15°C° 0 mm 2 m/s 763 mmHg 92%
    09:00 -15°C° 0 mm 2 m/s 763 mmHg 92%
    10:00 -15°C° 0 mm 2 m/s 763 mmHg 91%
    11:00 -14°C° 0 mm 2 m/s 763 mmHg 91%
    12:00 -13°C° 0 mm 2 m/s 763 mmHg 91%
    13:00 -13°C° 0 mm 2 m/s 763 mmHg 92%
    14:00 -13°C° 0 mm 2 m/s 763 mmHg 92%
    15:00 -13°C° 0 mm 2 m/s 763 mmHg 92%
    16:00 -13°C° 0 mm 2 m/s 763 mmHg 92%
    17:00 -14°C° 0 mm 2 m/s 763 mmHg 91%
    18:00 -14°C° 0 mm 2 m/s 763 mmHg 91%
    19:00 -14°C° 0 mm 2 m/s 763 mmHg 91%
    20:00 -14°C° 0 mm 2 m/s 763 mmHg 91%
    21:00 -14°C° 0 mm 2 m/s 763 mmHg 90%
    22:00 -14°C° 0 mm 2 m/s 763 mmHg 90%
    23:00 -14°C° 0 mm 2 m/s 763 mmHg 89%
    Voir plus